Карточка аэропорта URKK

Внимание!
Информация на этой странице в стадии наполнения.
Если вы не увидели какой-то информации, или заметили неточность - пожалуйста сообщите нам!
Спасибо!
Команда RU-STAFF
Название аэропортаПашковский
Название аэропорта (англ.)Pashkovskiy
Превышение120 ft. (36.6 m.)
Координаты45°2.0820000000001', 39°10.218'
Высота перехода4000 ft
Эшелон переходаFL60 (QNH >= 977); FL70 (QNH < 977)
Коды ответчика1030-1037
Зона ОрВДРостов-на-Дону РПИ (URRV)
Данные METARURKK 042130Z 07007MPS 9999 BKN027 M02/M05 Q1032 R05R/CLRD70 TEMPO 6000 -FZRA OVC010 RMK QFE771
Проноз погоды (TAF)URKK 041951Z 0421/0521 06007G12MPS 9999 BKN020 TEMPO 0421/0518 09012G18MPS 6000 -SN BKN016 PROB40 0421/0506 -FZRA OVC010
NOTAMshow/hide NOTAM
AWOS   TABLE

Информация о ВПП

ВПП Длина ВПП (м.) Покрытие Курс ВПП Частота ILS
23R2200Асфальтобетон226 
23L3000Железобетон226 
05R3000Железобетон46 
05L2200Асфальтобетон46 

Диспетчерские позиции

Позывной Наименование органа УВД Частота
URKK_TWRКраснодар-Вышка118.2
URKK_R_APPКраснодар-Круг121.3
URKK_GNDКраснодар-Руление119.0
URKK_APPКраснодар-Подход129.6



Спутниковое изображение